Location: Unspecified
(45.3712°N, 0.6436°E)
Time: 06:04:03
(UTC+01:00)

N. Korean satellite - Visible Passes

Search period start: 19 November 2018 00:00
Search period end: 29 November 2018 00:00
Orbit: 457 x 511 km, 97.2° (Epoch: 18 November)

Date Brightness Start Highest point End Pass type
(mag) Time Alt. Az. Time Alt. Az. Time Alt. Az.
19 Nov 9.8 06:25:31 10° NE 06:27:42 16° E 06:29:53 10° SE visible
19 Nov 7.0 18:35:25 10° S 18:38:59 66° W 18:42:32 10° NNW visible
20 Nov 6.5 18:10:58 10° SSE 18:14:30 59° ENE 18:17:59 10° N visible
21 Nov 7.3 07:08:56 10° NNE 07:12:20 56° E 07:15:43 10° S visible
21 Nov 7.4 17:46:57 10° SE 17:50:05 29° ENE 17:53:11 10° N visible
21 Nov 9.5 19:20:59 10° SW 19:23:35 19° W 19:26:09 10° NW visible
22 Nov 8.9 06:44:45 10° NE 06:47:44 27° E 06:50:43 10° SSE visible
22 Nov 8.2 18:55:38 10° SSW 18:58:56 36° W 19:02:14 10° NNW visible
23 Nov 9.8 06:21:08 10° ENE 06:23:03 14° E 06:24:58 10° SE visible
23 Nov 6.7 18:30:49 10° S 18:34:23 76° W 18:37:54 10° NNW visible
24 Nov 6.4 07:28:46 10° N 07:32:13 77° WNW 07:35:40 10° SSW visible
24 Nov 6.6 18:06:26 10° SSE 18:09:53 51° ENE 18:13:18 10° N visible
24 Nov 10.2 19:42:42 10° WSW 19:43:38 11° W 19:44:34 10° WNW visible
25 Nov 7.5 07:04:19 10° NNE 07:07:41 49° E 07:11:03 10° S visible
25 Nov 9.3 19:16:12 10° SW 19:18:54 21° W 19:21:37 10° NW visible
26 Nov 9.1 06:40:11 10° NE 06:43:04 24° E 06:45:56 10° SSE visible
26 Nov 8.0 18:50:56 10° S 18:54:17 40° W 18:57:36 10° NNW visible
27 Nov 9.9 06:16:46 10° ENE 06:18:21 13° E 06:19:57 10° ESE visible
27 Nov 6.5 18:26:11 10° SSE 18:29:43 86° WSW 18:33:13 10° NNW visible
28 Nov 6.4 07:24:05 10° NNE 07:27:33 88° WNW 07:31:02 10° SSW visible
28 Nov 6.8 18:01:52 10° SE 18:05:14 44° ENE 18:08:34 10° N visible
28 Nov 10.0 19:37:30 10° WSW 19:38:56 12° W 19:40:21 10° WNW visible
